BAW856Z EGLL-LKPR

Flight info

Callsign BAW856Z
Flight time N/A
Altitude 37000
Route BPK Q295 BRAIN M197 REDFA DCT TACHA DCT NOMKA DCT SUVUT L620 PIKIB T620 LALUK DCT GOLOP
Aircraft A320/M-SDE3FGHIRWY/LB1

Departure

Time N/A
Airport London Heathrow Airport (EGLL)

Arrival

Time 2026-05-06 17:51
Airport Václav Havel Airport Prague (LKPR)
Time Latitude Longitude Altitude Speed Heading
2026-05-06 17:22 51.04751 12.86615 36756 ft 463 kts 110°
2026-05-06 17:22 51.03046 12.96515 36757 ft 464 kts 110°
2026-05-06 17:23 51.01260 13.06368 36761 ft 464 kts 111°
2026-05-06 17:23 50.99425 13.16206 36682 ft 464 kts 111°
2026-05-06 17:23 50.98505 13.21111 36074 ft 464 kts 111°
2026-05-06 17:24 50.97569 13.26096 35420 ft 465 kts 111°
2026-05-06 17:24 50.96659 13.30954 34788 ft 466 kts 111°
2026-05-06 17:24 50.95734 13.35954 34145 ft 467 kts 111°
2026-05-06 17:24 50.94839 13.40910 33473 ft 468 kts 111°
2026-05-06 17:25 50.94057 13.45943 32728 ft 472 kts 106°
2026-05-06 17:25 50.93453 13.51064 32127 ft 473 kts 105°
2026-05-06 17:25 50.92863 13.56198 31553 ft 473 kts 105°
2026-05-06 17:25 50.92278 13.61298 30990 ft 469 kts 105°
2026-05-06 17:26 50.91697 13.66361 30439 ft 466 kts 105°
2026-05-06 17:26 50.91120 13.71398 29894 ft 462 kts 105°
2026-05-06 17:26 50.90578 13.76396 29274 ft 461 kts 101°
2026-05-06 17:26 50.90417 13.81477 28649 ft 460 kts 95°
2026-05-06 17:27 50.90359 13.86524 28041 ft 457 kts 95°
2026-05-06 17:27 50.90306 13.91542 27447 ft 453 kts 95°
2026-05-06 17:27 50.90252 13.96518 26855 ft 450 kts 95°
2026-05-06 17:27 50.89978 14.01400 26322 ft 441 kts 104°
2026-05-06 17:28 50.89442 14.06138 25868 ft 434 kts 105°
2026-05-06 17:28 50.88895 14.10814 25411 ft 430 kts 105°
2026-05-06 17:28 50.88351 14.15446 24970 ft 425 kts 105°
2026-05-06 17:28 50.87517 14.19854 24526 ft 412 kts 121°
2026-05-06 17:29 50.85914 14.23548 24089 ft 396 kts 139°
2026-05-06 17:29 50.83802 14.26209 23669 ft 384 kts 154°
2026-05-06 17:29 50.81513 14.28346 23236 ft 381 kts 154°
2026-05-06 17:29 50.79232 14.30461 22740 ft 380 kts 154°
2026-05-06 17:30 50.76958 14.32567 22249 ft 377 kts 154°
2026-05-06 17:30 50.74703 14.34657 21813 ft 375 kts 154°
2026-05-06 17:30 50.72464 14.36733 21424 ft 372 kts 154°
2026-05-06 17:30 50.70238 14.38798 21032 ft 370 kts 154°
2026-05-06 17:31 50.68030 14.40841 20690 ft 368 kts 154°
2026-05-06 17:31 50.65827 14.42879 20384 ft 367 kts 154°
2026-05-06 17:31 50.63612 14.44848 20076 ft 362 kts 159°
2026-05-06 17:31 50.61268 14.46123 19783 ft 351 kts 172°
2026-05-06 17:32 50.58907 14.46585 19645 ft 334 kts 180°
2026-05-06 17:32 50.56639 14.46505 19521 ft 319 kts 192°
2026-05-06 17:32 50.54589 14.45468 19374 ft 304 kts 209°
2026-05-06 17:32 50.52796 14.43755 19073 ft 300 kts 213°
2026-05-06 17:33 50.51058 14.41960 18705 ft 298 kts 214°
2026-05-06 17:33 50.49342 14.40147 18354 ft 297 kts 214°
2026-05-06 17:33 50.47632 14.38342 17995 ft 295 kts 214°
2026-05-06 17:33 50.45928 14.36555 17587 ft 294 kts 214°
2026-05-06 17:34 50.44132 14.35045 17188 ft 294 kts 202°
2026-05-06 17:34 50.42146 14.34277 16786 ft 295 kts 188°
2026-05-06 17:34 50.40088 14.34312 16386 ft 298 kts 176°
2026-05-06 17:34 50.38004 14.34748 15994 ft 298 kts 176°
2026-05-06 17:35 50.36650 14.35025 15739 ft 297 kts 176°
2026-05-06 17:35 50.34357 14.35488 15528 ft 288 kts 176°
2026-05-06 17:35 50.32402 14.35882 15398 ft 277 kts 176°
2026-05-06 17:36 50.28740 14.36623 14923 ft 260 kts 177°
2026-05-06 17:36 50.26955 14.36976 14652 ft 258 kts 177°
2026-05-06 17:36 50.25180 14.37326 14365 ft 257 kts 177°
2026-05-06 17:36 50.23406 14.37674 14075 ft 256 kts 177°
2026-05-06 17:37 50.21640 14.38018 13767 ft 256 kts 177°
2026-05-06 17:37 50.19874 14.38364 13481 ft 255 kts 177°
2026-05-06 17:37 50.18118 14.38713 13169 ft 254 kts 177°
2026-05-06 17:37 50.16366 14.39063 12857 ft 253 kts 176°
2026-05-06 17:38 50.14663 14.39786 12547 ft 257 kts 159°
2026-05-06 17:38 50.13161 14.41342 12227 ft 262 kts 141°
2026-05-06 17:38 50.11985 14.43550 11811 ft 267 kts 131°
2026-05-06 17:38 50.10878 14.45860 11529 ft 266 kts 131°
2026-05-06 17:39 50.09772 14.48155 11243 ft 264 kts 132°
2026-05-06 17:39 50.08658 14.50457 10877 ft 262 kts 132°
2026-05-06 17:39 50.07563 14.52713 10490 ft 260 kts 132°
2026-05-06 17:39 50.06475 14.54956 10114 ft 259 kts 131°
2026-05-06 17:40 50.05422 14.57223 9817 ft 258 kts 130°
2026-05-06 17:40 50.04383 14.59494 9548 ft 257 kts 130°
2026-05-06 17:40 50.03348 14.61755 9262 ft 255 kts 130°
2026-05-06 17:40 50.02319 14.63995 8990 ft 254 kts 130°
2026-05-06 17:41 50.01301 14.66206 8871 ft 252 kts 130°
2026-05-06 17:41 50.00279 14.68416 8640 ft 250 kts 130°
2026-05-06 17:41 49.99278 14.70572 8509 ft 242 kts 130°
2026-05-06 17:41 49.98311 14.72655 8377 ft 233 kts 130°
2026-05-06 17:42 49.97373 14.74681 8144 ft 229 kts 130°
2026-05-06 17:42 49.96449 14.76676 7861 ft 227 kts 130°
2026-05-06 17:42 49.95530 14.78652 7580 ft 224 kts 130°
2026-05-06 17:42 49.94553 14.80497 7447 ft 218 kts 147°
2026-05-06 17:43 49.93195 14.81344 7300 ft 210 kts 179°
2026-05-06 17:43 49.91815 14.80832 6975 ft 206 kts 213°
2026-05-06 17:43 49.90905 14.79139 6627 ft 211 kts 247°
2026-05-06 17:43 49.90761 14.76857 6343 ft 216 kts 271°
2026-05-06 17:44 49.90954 14.74509 6176 ft 222 kts 275°
2026-05-06 17:44 49.91193 14.72143 5997 ft 222 kts 275°
2026-05-06 17:44 49.91433 14.69771 5772 ft 222 kts 276°
2026-05-06 17:44 49.91663 14.67383 5508 ft 221 kts 276°
2026-05-06 17:45 49.91881 14.65023 5198 ft 221 kts 275°
2026-05-06 17:45 49.92259 14.62759 4939 ft 220 kts 297°
2026-05-06 17:45 49.93138 14.60804 4818 ft 224 kts 306°
2026-05-06 17:45 49.94102 14.58856 4694 ft 225 kts 306°
2026-05-06 17:46 49.95047 14.56931 4573 ft 224 kts 306°
2026-05-06 17:46 49.95989 14.55008 4446 ft 223 kts 306°
2026-05-06 17:46 49.96928 14.53087 4318 ft 223 kts 306°
2026-05-06 17:46 49.97862 14.51175 4192 ft 221 kts 306°
2026-05-06 17:47 49.98786 14.49281 4089 ft 216 kts 306°
2026-05-06 17:47 49.99670 14.47470 4001 ft 205 kts 306°
2026-05-06 17:47 50.00494 14.45780 3999 ft 188 kts 306°
2026-05-06 17:47 50.01277 14.44171 3770 ft 185 kts 306°
2026-05-06 17:48 50.02049 14.42585 3530 ft 183 kts 307°
2026-05-06 17:48 50.02555 14.41544 3374 ft 181 kts 307°
2026-05-06 17:48 50.03310 14.39994 3130 ft 178 kts 307°
2026-05-06 17:48 50.04042 14.38487 2908 ft 172 kts 308°
2026-05-06 17:49 50.04758 14.37013 2695 ft 169 kts 308°
2026-05-06 17:49 50.05459 14.35570 2453 ft 163 kts 308°
2026-05-06 17:49 50.06118 14.34210 2258 ft 150 kts 308°
2026-05-06 17:49 50.06728 14.32953 2051 ft 143 kts 309°
2026-05-06 17:50 50.07328 14.31716 1857 ft 143 kts 309°
2026-05-06 17:50 50.07918 14.30498 1666 ft 144 kts 309°
2026-05-06 17:50 50.08534 14.29228 1462 ft 146 kts 309°
2026-05-06 17:50 50.09146 14.27961 1264 ft 146 kts 305°
2026-05-06 17:51 50.09696 14.26827 1216 ft 108 kts 307°
2026-05-06 17:51 50.10048 14.26095 1194 ft 66 kts 307°
2026-05-06 17:51 50.10265 14.25710 1188 ft 29 kts 337°
2026-05-06 17:51 50.10412 14.25655 1186 ft 9 kts
2026-05-06 17:52 50.10462 14.25668 1185 ft 4 kts 12°
2026-05-06 17:52 50.10473 14.25672 1185 ft 3 kts 13°
2026-05-06 17:52 50.10519 14.25698 1184 ft 12 kts 28°
2026-05-06 17:52 50.10602 14.25785 1182 ft 17 kts 34°
2026-05-06 17:53 50.10718 14.25914 1176 ft 19 kts 34°
2026-05-06 17:53 50.10833 14.26032 1176 ft 21 kts 34°
2026-05-06 17:53 50.10934 14.26143 1173 ft 16 kts 36°
2026-05-06 17:53 50.11031 14.26246 1172 ft 17 kts 34°
2026-05-06 17:54 50.11086 14.26369 1172 ft 14 kts 94°
2026-05-06 17:54 50.11048 14.26503 1174 ft 14 kts 130°
2026-05-06 17:54 50.10989 14.26609 1175 ft 12 kts 130°
2026-05-06 17:54 50.10943 14.26685 1175 ft 7 kts 155°
2026-05-06 17:55 50.10915 14.26665 1177 ft 4 kts 213°
2026-05-06 17:55 50.10901 14.26651 1176 ft 2 kts 214°
2026-05-06 17:55 50.10896 14.26646 1175 ft 0 kts 214°